Guymon, OK

11:05 AM CDT on August 21, 2017 (GMT -0500)
Guymon Municipal

Weather History for KGUY - April, 2014

Change the Weather History Date:

Saturday, April 26, 2014

  Actual Average Record
Temperature  
Mean Temperature 74 °F 58 °F  
Max Temperature 92 °F 74 °F 92 °F (2014)
Min Temperature 55 °F 43 °F 29 °F (2006)
Degree Days  
Heating Degree Days 0 7  
Month to date heating degree days 237 280  
Since 1 July heating degree days 4408 4328  
Cooling Degree Days 9 1  
Month to date cooling degree days 27 6  
Year to date cooling degree days 28 8  
Growing Degree Days 23 (Base 50)    
Moisture  
Dew Point 23 °F    
Average Humidity 21    
Maximum Humidity 35    
Minimum Humidity 6    
Precipitation  
Precipitation 0.00 in 0.05 in 0.65 in (2011)
Month to date precipitation 0.55 1.30  
Year to date precipitation 1.10 3.60  
Snow  
Snow 0.00 in - - ()
Month to date snowfall 2.0  
Since 1 July snowfall 16.2  
Snow Depth 0.00 in    
Sea Level Pressure  
Sea Level Pressure 29.37 in    
Wind  
Wind Speed 20 mph (SSW)    
Max Wind Speed 38 mph    
Max Gust Speed 49 mph    
Visibility 10 miles    
Events Rain    
T = Trace of Precipitation, MM = Missing Value Source: NWS Daily Summary

Daily Weather History Graph

Daily Weather History Graph

Search for Another Location

Airport or City:

Trip Planner

Search our weather history database for the weather conditions in past years. The results will help you decide how hot, cold, wet, or windy it might be!

Date:

Astronomy

Apr. 26, 2014 Rise Set
Actual Time 6:58 AM CDT 8:30 PM CDT
Civil Twilight 6:30 AM CDT 8:57 PM CDT
Nautical Twilight 5:57 AM CDT 9:30 PM CDT
Astronomical Twilight 5:23 AM CDT 10:05 PM CDT
Moon 5:18 AM CDT (4/26) 6:04 PM CDT (4/26)
Length of Visible Light 14h 26m
Length of Day
13h 32m
Waning Crescent, 8% of the Moon is Illuminated
Apr 26
Waning Crescent
Apr 29
New
May 6
First Quarter
May 14
Full
May 21
Last Quarter

Hourly Weather History & Observations

Time (CDT) Temp. Dew Point Humidity Pressure Visibility Wind Dir Wind Speed Gust Speed Precip Events Conditions
12:53 AM 64.0 °F 35.1 °F 34% 29.52 in 10.0 mi South 12.7 mph - N/A   Clear
1:53 AM 60.1 °F 25.0 °F 26% 29.51 in 10.0 mi South 8.1 mph - N/A   Clear
2:53 AM 57.9 °F 24.1 °F 27% 29.49 in 10.0 mi SSW 6.9 mph - N/A   Clear
3:53 AM 59.0 °F 25.0 °F 27% 29.48 in 10.0 mi South 10.4 mph - N/A   Clear
4:53 AM 57.9 °F 23.0 °F 26% 29.47 in 10.0 mi South 13.8 mph - N/A   Clear
5:53 AM 55.9 °F 21.9 °F 27% 29.49 in 10.0 mi South 12.7 mph - N/A   Clear
6:53 AM 55.9 °F 28.9 °F 36% 29.49 in 10.0 mi South 17.3 mph - N/A   Clear
7:53 AM 60.1 °F 39.0 °F 46% 29.51 in 10.0 mi SSW 15.0 mph - 0.00 in Rain Light Rain
8:53 AM 66.0 °F 43.0 °F 43% 29.50 in 10.0 mi SSW 18.4 mph - 0.00 in   Clear
9:53 AM 73.9 °F 37.0 °F 26% 29.48 in 10.0 mi SW 23.0 mph 29.9 mph 0.00 in   Clear
10:53 AM 78.1 °F 28.9 °F 17% 29.46 in 10.0 mi SW 23.0 mph 31.1 mph N/A   Clear
11:53 AM 84.9 °F 27.0 °F 12% 29.42 in 10.0 mi SSW 21.9 mph 29.9 mph N/A   Clear
12:53 PM 87.1 °F 17.1 °F 8% 29.38 in 10.0 mi SSW 29.9 mph 39.1 mph N/A   Clear
1:53 PM 90.0 °F 16.0 °F 7% 29.34 in 10.0 mi SSW 32.2 mph 42.6 mph N/A   Clear
2:53 PM 90.0 °F 12.9 °F 6% 29.31 in 10.0 mi SSW 33.4 mph 40.3 mph N/A   Clear
3:53 PM 90.0 °F 12.0 °F 6% 29.27 in 10.0 mi South 31.1 mph 43.7 mph N/A   Clear
4:53 PM 91.0 °F 15.1 °F 6% 29.25 in 10.0 mi SW 27.6 mph 41.4 mph N/A   Clear
5:53 PM 89.1 °F 12.9 °F 6% 29.23 in 10.0 mi SSW 31.1 mph 43.7 mph N/A   Clear
6:53 PM 86.0 °F 12.9 °F 7% 29.23 in 10.0 mi SSW 28.8 mph 38.0 mph N/A   Clear
7:53 PM 84.0 °F 15.1 °F 8% 29.22 in 10.0 mi SSW 18.4 mph - 0.00 in Rain Light Rain
8:53 PM 82.0 °F 15.1 °F 8% 29.21 in 10.0 mi South 21.9 mph 28.8 mph 0.00 in Rain Light Rain
9:53 PM 71.1 °F 18.0 °F 13% 29.25 in 10.0 mi SW 11.5 mph - 0.00 in   Partly Cloudy
10:53 PM 69.1 °F 21.0 °F 16% 29.24 in 10.0 mi SSW 9.2 mph - N/A   Clear
11:53 PM 69.1 °F 21.0 °F 16% 29.21 in 10.0 mi South 12.7 mph - N/A   Mostly Cloudy